Hourly Data Report for October 24, 2016

All times are specified in Local Standard Time (LST). Add 1 hour to adjust for Daylight Saving Time where and when it is observed.

OTTAWA INTL A
ONTARIO

45°19'00.000" N
75°40'00.000" W
114.90 m
6106001
71628
YOW

Download Data

Hourly Data (October 2016)
Hourly Data Report for October 24, 2016
Temp Definition
°C
Dew Point Temp Definition
°C
Rel Hum Definition
%
Wind Dir Definition
10's deg

Wind Spd Definition
km/h
Visibility Definition
km
Stn Press Definition
kPa
Hmdx Definition


Wind Chill Definition


Weather Definition


TIME
00:00 Legend Double Dagger 5.6 1.9 77 29 16 24.1 99.32     LegendNANA
01:00 Legend Double Dagger 4.3 1.2 80 28 14 24.1 99.33     Mainly Clear
02:00 Legend Double Dagger 4.2 0.7 78 28 17 24.1 99.39     LegendNANA
03:00 Legend Double Dagger 3.1 -0.2 79 28 12 24.1 99.47     LegendNANA
04:00 Legend Double Dagger 1.4 -0.4 88 24 11 24.1 99.51     Clear
05:00 Legend Double Dagger 1.7 -0.2 87 26 12 24.1 99.59     LegendNANA
06:00 Legend Double Dagger 1.3 -0.8 86 25 13 24.1 99.65     LegendNANA
07:00 Legend Double Dagger 2.2 -0.4 83 25 13 24.1 99.75     Mainly Clear
08:00 Legend Double Dagger 4.0 -0.2 74 26 19 24.1 99.83     LegendNANA
09:00 Legend Double Dagger 4.6 -0.6 69 28 27 24.1 99.91     LegendNANA
10:00 Legend Double Dagger 5.2 -0.6 66 28 31 24.1 99.95     Mostly Cloudy
11:00 Legend Double Dagger 5.7 -1.5 60 29 34 24.1 99.98     LegendNANA
12:00 Legend Double Dagger 6.0 -0.5 63 28 30 24.1 100.01     LegendNANA
13:00 Legend Double Dagger 6.7 -1.5 56 29 27 24.1 100.00     Mostly Cloudy
14:00 Legend Double Dagger 6.8 -2.4 52 30 37 24.1 100.05     LegendNANA
15:00 Legend Double Dagger 7.3 -2.2 51 30 34 24.1 100.10     LegendNANA
16:00 Legend Double Dagger 6.4 -2.5 53 29 30 24.1 100.20     Mostly Cloudy
17:00 Legend Double Dagger 5.0 -3.3 55 32 23 24.1 100.27     LegendNANA
18:00 Legend Double Dagger 3.5 -3.1 62 33 16 24.1 100.34     LegendNANA
19:00 Legend Double Dagger 1.8 -3.1 70 30 13 24.1 100.39     Clear
20:00 Legend Double Dagger 1.9 -3.2 69 28 13 24.1 100.44     LegendNANA
21:00 Legend Double Dagger 2.9 -3.5 63 28 18 24.1 100.45     LegendNANA
22:00 Legend Double Dagger 1.1 -3.8 70 28 14 24.1 100.49     Clear
23:00 Legend Double Dagger 0.3 -3.8 74 28 13 24.1 100.52     LegendNANA

Notes on Data Quality.

Legend

  • E = Estimated
  • M = Missing
  • NA = Not Available
  • ‡ = Partner data that is not subject to review by the National Climate Archives
Date modified: